Time,TemperatureF,DewpointF,PressureIn,WindDirection,WindDirectionDegrees,WindSpeedMPH,WindSpeedGustMPH,Humidity,HourlyPrecipIn,Conditions,Clouds,dailyrainin,SoftwareType,DateUTC
2013-03-30 00:02:00,29.0,26.0,30.30,West,279,0.0,-999.0,90,-99.99,,,-99.99,,2013-03-30 04:02:00,
2013-03-30 00:12:00,29.0,26.0,30.30,West,279,0.0,-999.0,90,-99.99,,,-99.99,,2013-03-30 04:12:00,
2013-03-30 00:23:00,29.0,27.0,30.30,West,279,0.0,-999.0,91,-99.99,,,-99.99,,2013-03-30 04:23:00,
2013-03-30 00:32:00,29.0,27.0,30.30,West,279,0.0,-999.0,92,-99.99,,,-99.99,,2013-03-30 04:32:00,
2013-03-30 00:43:00,29.0,27.0,30.30,West,279,0.0,-999.0,92,-99.99,,,-99.99,,2013-03-30 04:43:00,
2013-03-30 00:53:00,28.0,26.0,30.30,West,279,0.0,-999.0,92,-99.99,,,-99.99,,2013-03-30 04:53:00,
2013-03-30 01:02:00,28.0,26.0,30.30,West,279,0.0,-999.0,92,-99.99,,,-99.99,,2013-03-30 05:02:00,
2013-03-30 01:12:00,28.0,26.0,30.30,West,279,0.0,-999.0,92,-99.99,,,-99.99,,2013-03-30 05:12:00,
2013-03-30 01:22:00,28.0,26.0,30.30,West,279,0.0,-999.0,93,-99.99,,,-99.99,,2013-03-30 05:22:00,
2013-03-30 01:32:00,28.0,26.0,30.30,West,279,0.0,-999.0,93,-99.99,,,-99.99,,2013-03-30 05:32:00,
2013-03-30 01:42:00,28.0,26.0,30.30,West,279,0.0,-999.0,93,-99.99,,,-99.99,,2013-03-30 05:42:00,
2013-03-30 01:52:00,28.0,27.0,30.30,West,279,0.0,-999.0,94,-99.99,,,-99.99,,2013-03-30 05:52:00,
2013-03-30 02:02:00,28.0,27.0,30.30,West,279,0.0,-999.0,94,-99.99,,,-99.99,,2013-03-30 06:02:00,
2013-03-30 02:12:00,28.0,27.0,30.30,West,279,0.0,-999.0,94,-99.99,,,-99.99,,2013-03-30 06:12:00,
2013-03-30 02:23:00,28.0,27.0,30.30,West,279,0.0,-999.0,94,-99.99,,,-99.99,,2013-03-30 06:23:00,
2013-03-30 02:32:00,28.0,27.0,30.30,West,279,0.0,-999.0,94,-99.99,,,-99.99,,2013-03-30 06:32:00,
2013-03-30 02:42:00,28.0,27.0,30.30,West,279,0.0,-999.0,94,-99.99,,,-99.99,,2013-03-30 06:42:00,
2013-03-30 02:52:00,27.0,26.0,30.29,West,279,0.0,-999.0,94,-99.99,,,-99.99,,2013-03-30 06:52:00,
2013-03-30 03:02:00,27.0,26.0,30.29,West,279,0.0,-999.0,95,-99.99,,,-99.99,,2013-03-30 07:02:00,
2013-03-30 03:12:00,27.0,26.0,30.29,West,279,0.0,-999.0,95,-99.99,,,-99.99,,2013-03-30 07:12:00,
2013-03-30 03:22:00,26.0,25.0,30.29,West,279,0.0,-999.0,95,-99.99,,,-99.99,,2013-03-30 07:22:00,
2013-03-30 03:32:00,26.0,25.0,30.29,West,279,0.0,-999.0,95,-99.99,,,-99.99,,2013-03-30 07:32:00,
2013-03-30 03:42:00,26.0,25.0,30.29,West,279,0.0,-999.0,95,-99.99,,,-99.99,,2013-03-30 07:42:00,
2013-03-30 03:52:00,25.0,24.0,30.29,West,279,0.0,-999.0,95,-99.99,,,-99.99,,2013-03-30 07:52:00,
2013-03-30 04:02:00,25.0,24.0,30.29,West,279,0.0,-999.0,95,-99.99,,,-99.99,,2013-03-30 08:02:00,
2013-03-30 04:12:00,25.0,24.0,30.29,West,279,0.0,-999.0,95,-99.99,,,-99.99,,2013-03-30 08:12:00,
2013-03-30 04:22:00,25.0,24.0,30.29,West,279,0.0,-999.0,95,-99.99,,,-99.99,,2013-03-30 08:22:00,
2013-03-30 04:32:00,25.0,24.0,30.29,West,279,0.0,-999.0,95,-99.99,,,-99.99,,2013-03-30 08:32:00,
2013-03-30 04:42:00,25.0,24.0,30.29,West,279,0.0,-999.0,95,-99.99,,,-99.99,,2013-03-30 08:42:00,
2013-03-30 04:53:00,24.0,23.0,30.28,West,279,0.0,-999.0,95,-99.99,,,-99.99,,2013-03-30 08:53:00,
2013-03-30 05:02:00,24.0,23.0,30.28,West,279,0.0,-999.0,95,-99.99,,,-99.99,,2013-03-30 09:02:00,
2013-03-30 05:12:00,24.0,23.0,30.28,West,279,0.0,-999.0,95,-99.99,,,-99.99,,2013-03-30 09:12:00,
2013-03-30 05:22:00,24.0,23.0,30.28,West,279,0.0,-999.0,95,-99.99,,,-99.99,,2013-03-30 09:22:00,
2013-03-30 05:33:00,23.0,22.0,30.27,West,279,0.0,-999.0,95,-99.99,,,-99.99,,2013-03-30 09:33:00,
2013-03-30 05:43:00,23.0,22.0,30.27,West,279,0.0,-999.0,95,-99.99,,,-99.99,,2013-03-30 09:43:00,
2013-03-30 05:53:00,24.0,23.0,30.27,West,279,0.0,-999.0,95,-99.99,,,-99.99,,2013-03-30 09:53:00,
2013-03-30 06:03:00,24.0,23.0,30.28,West,279,0.0,-999.0,95,-99.99,,,-99.99,,2013-03-30 10:03:00,
2013-03-30 06:13:00,24.0,23.0,30.28,West,279,0.0,-999.0,95,-99.99,,,-99.99,,2013-03-30 10:13:00,
2013-03-30 06:23:00,24.0,23.0,30.27,West,279,0.0,-999.0,95,-99.99,,,-99.99,,2013-03-30 10:23:00,
2013-03-30 06:33:00,23.0,22.0,30.27,West,279,0.0,-999.0,95,-99.99,,,-99.99,,2013-03-30 10:33:00,
2013-03-30 06:42:00,23.0,22.0,30.27,West,279,0.0,-999.0,95,-99.99,,,-99.99,,2013-03-30 10:42:00,
2013-03-30 06:52:00,23.0,22.0,30.28,West,279,0.0,-999.0,95,-99.99,,,-99.99,,2013-03-30 10:52:00,
2013-03-30 07:04:00,23.0,22.0,30.28,West,279,0.0,-999.0,95,-99.99,,,-99.99,,2013-03-30 11:04:00,
2013-03-30 07:12:00,23.0,22.0,30.28,West,279,0.0,-999.0,95,-99.99,,,-99.99,,2013-03-30 11:12:00,
2013-03-30 07:22:00,22.0,21.0,30.28,West,279,0.0,-999.0,95,-99.99,,,-99.99,,2013-03-30 11:22:00,
2013-03-30 07:33:00,22.0,21.0,30.28,West,279,0.0,-999.0,95,-99.99,,,-99.99,,2013-03-30 11:33:00,
2013-03-30 07:42:00,22.0,21.0,30.28,West,279,0.0,-999.0,95,-99.99,,,-99.99,,2013-03-30 11:42:00,
2013-03-30 07:52:00,22.0,21.0,30.28,West,279,0.0,-999.0,95,-99.99,,,-99.99,,2013-03-30 11:52:00,
2013-03-30 08:02:00,21.0,20.0,30.28,West,279,0.0,-999.0,95,-99.99,,,-99.99,,2013-03-30 12:02:00,
2013-03-30 08:12:00,21.0,20.0,30.28,West,279,0.0,-999.0,95,-99.99,,,-99.99,,2013-03-30 12:12:00,
2013-03-30 08:22:00,21.0,20.0,30.27,West,279,0.0,-999.0,95,-99.99,,,-99.99,,2013-03-30 12:22:00,
2013-03-30 08:33:00,22.0,21.0,30.27,West,279,0.0,-999.0,95,-99.99,,,-99.99,,2013-03-30 12:33:00,
2013-03-30 08:42:00,22.0,21.0,30.27,West,279,0.0,-999.0,95,-99.99,,,-99.99,,2013-03-30 12:42:00,
2013-03-30 08:52:00,24.0,23.0,30.27,West,279,0.0,-999.0,95,-99.99,,,-99.99,,2013-03-30 12:52:00,
2013-03-30 09:02:00,25.0,24.0,30.27,West,279,0.0,-999.0,95,-99.99,,,-99.99,,2013-03-30 13:02:00,
2013-03-30 09:12:00,25.0,24.0,30.27,West,279,0.0,-999.0,95,-99.99,,,-99.99,,2013-03-30 13:12:00,
2013-03-30 09:22:00,26.0,25.0,30.26,West,279,0.0,-999.0,95,-99.99,,,-99.99,,2013-03-30 13:22:00,
2013-03-30 09:32:00,27.0,26.0,30.24,West,279,0.0,-999.0,95,-99.99,,,-99.99,,2013-03-30 13:32:00,
2013-03-30 09:43:00,27.0,26.0,30.24,West,279,0.0,-999.0,95,-99.99,,,-99.99,,2013-03-30 13:43:00,
2013-03-30 09:52:00,28.0,27.0,30.25,West,279,0.0,-999.0,94,-99.99,,,-99.99,,2013-03-30 13:52:00,
2013-03-30 10:03:00,30.0,28.0,30.24,West,279,0.0,-999.0,94,-99.99,,,-99.99,,2013-03-30 14:03:00,
2013-03-30 10:12:00,30.0,28.0,30.24,West,279,0.0,-999.0,94,-99.99,,,-99.99,,2013-03-30 14:12:00,
2013-03-30 10:23:00,33.0,31.0,30.22,West,276,0.0,-999.0,92,-99.99,,,-99.99,,2013-03-30 14:23:00,
2013-03-30 10:32:00,35.0,31.0,30.23,West,277,0.0,-999.0,84,-99.99,,,-99.99,,2013-03-30 14:32:00,
2013-03-30 10:42:00,35.0,31.0,30.23,West,277,0.0,-999.0,84,-99.99,,,-99.99,,2013-03-30 14:42:00,
2013-03-30 10:52:00,37.0,29.0,30.22,South,186,1.0,-999.0,74,-99.99,,,-99.99,,2013-03-30 14:52:00,
2013-03-30 11:03:00,39.0,27.0,30.22,SW,225,1.0,-999.0,63,-99.99,,,-99.99,,2013-03-30 15:03:00,
2013-03-30 11:12:00,39.0,27.0,30.22,SW,225,1.0,-999.0,63,-99.99,,,-99.99,,2013-03-30 15:12:00,
2013-03-30 11:22:00,42.0,27.0,30.21,WSW,242,2.0,-999.0,54,-99.99,,,-99.99,,2013-03-30 15:22:00,
2013-03-30 11:33:00,42.0,26.0,30.21,SW,227,2.0,-999.0,52,-99.99,,,-99.99,,2013-03-30 15:33:00,
2013-03-30 11:43:00,42.0,26.0,30.21,SW,227,2.0,-999.0,52,-99.99,,,-99.99,,2013-03-30 15:43:00,
2013-03-30 11:53:00,43.0,24.0,30.21,WSW,250,4.0,-999.0,47,-99.99,,,-99.99,,2013-03-30 15:53:00,
2013-03-30 12:03:00,44.0,26.0,30.21,WSW,240,3.0,-999.0,48,-99.99,,,-99.99,,2013-03-30 16:03:00,
2013-03-30 12:13:00,45.0,25.0,30.20,SW,234,2.0,-999.0,46,-99.99,,,-99.99,,2013-03-30 16:13:00,
2013-03-30 12:23:00,45.0,25.0,30.20,SW,234,2.0,-999.0,46,-99.99,,,-99.99,,2013-03-30 16:23:00,
2013-03-30 12:33:00,46.0,26.0,30.20,WSW,242,3.0,-999.0,45,-99.99,,,-99.99,,2013-03-30 16:33:00,
2013-03-30 12:43:00,46.0,26.0,30.20,WSW,242,3.0,-999.0,45,-99.99,,,-99.99,,2013-03-30 16:43:00,
2013-03-30 12:53:00,47.0,26.0,30.20,West,265,3.0,-999.0,44,-99.99,,,-99.99,,2013-03-30 16:53:00,
2013-03-30 13:02:00,48.0,25.0,30.18,West,263,4.0,-999.0,41,-99.99,,,-99.99,,2013-03-30 17:02:00,
2013-03-30 13:13:00,48.0,25.0,30.18,West,263,4.0,-999.0,41,-99.99,,,-99.99,,2013-03-30 17:13:00,
2013-03-30 13:23:00,50.0,25.0,30.17,SW,230,4.0,-999.0,38,-99.99,,,-99.99,,2013-03-30 17:23:00,
2013-03-30 13:32:00,50.0,25.0,30.16,SW,235,3.0,-999.0,38,-99.99,,,-99.99,,2013-03-30 17:32:00,
2013-03-30 13:42:00,50.0,25.0,30.16,SW,235,3.0,-999.0,38,-99.99,,,-99.99,,2013-03-30 17:42:00,
2013-03-30 13:53:00,50.0,25.0,30.16,SW,235,3.0,-999.0,38,-99.99,,,-99.99,,2013-03-30 17:53:00,
2013-03-30 14:03:00,52.0,27.0,30.14,WSW,245,4.0,-999.0,37,-99.99,,,-99.99,,2013-03-30 18:03:00,
2013-03-30 14:12:00,52.0,27.0,30.14,WSW,248,4.0,-999.0,38,-99.99,,,-99.99,,2013-03-30 18:12:00,
2013-03-30 14:22:00,52.0,27.0,30.14,WSW,248,4.0,-999.0,38,-99.99,,,-99.99,,2013-03-30 18:22:00,
2013-03-30 14:33:00,52.0,27.0,30.13,SSW,202,4.0,-999.0,38,-99.99,,,-99.99,,2013-03-30 18:33:00,
2013-03-30 14:42:00,52.0,27.0,30.13,SSW,202,4.0,-999.0,38,-99.99,,,-99.99,,2013-03-30 18:42:00,
2013-03-30 14:53:00,52.0,27.0,30.13,SSW,202,4.0,-999.0,38,-99.99,,,-99.99,,2013-03-30 18:53:00,
2013-03-30 15:03:00,53.0,26.0,30.12,West,265,4.0,-999.0,35,-99.99,,,-99.99,,2013-03-30 19:03:00,
2013-03-30 15:13:00,53.0,26.0,30.12,West,265,4.0,-999.0,35,-99.99,,,-99.99,,2013-03-30 19:13:00,
2013-03-30 15:22:00,54.0,26.0,30.11,SW,219,6.0,-999.0,34,-99.99,,,-99.99,,2013-03-30 19:22:00,
2013-03-30 15:32:00,55.0,29.0,30.10,SW,229,5.0,-999.0,36,-99.99,,,-99.99,,2013-03-30 19:32:00,
2013-03-30 15:42:00,55.0,29.0,30.10,SW,229,5.0,-999.0,36,-99.99,,,-99.99,,2013-03-30 19:42:00,
2013-03-30 15:52:00,55.0,28.0,30.09,South,173,5.0,-999.0,35,-99.99,,,-99.99,,2013-03-30 19:52:00,
2013-03-30 16:02:00,56.0,29.0,30.08,SSW,200,6.0,-999.0,35,-99.99,,,-99.99,,2013-03-30 20:02:00,
2013-03-30 16:12:00,56.0,29.0,30.08,SSW,200,6.0,-999.0,35,-99.99,,,-99.99,,2013-03-30 20:12:00,
2013-03-30 16:22:00,56.0,29.0,30.06,WSW,248,5.0,-999.0,35,-99.99,,,-99.99,,2013-03-30 20:22:00,
2013-03-30 16:33:00,57.0,30.0,30.06,West,261,5.0,-999.0,35,-99.99,,,-99.99,,2013-03-30 20:33:00,
2013-03-30 16:42:00,57.0,30.0,30.06,West,261,5.0,-999.0,35,-99.99,,,-99.99,,2013-03-30 20:42:00,
2013-03-30 16:52:00,56.0,28.0,30.05,SSE,150,3.0,-999.0,34,-99.99,,,-99.99,,2013-03-30 20:52:00,
2013-03-30 17:03:00,57.0,28.0,30.04,South,179,3.0,-999.0,33,-99.99,,,-99.99,,2013-03-30 21:03:00,
2013-03-30 17:13:00,57.0,28.0,30.04,South,179,3.0,-999.0,33,-99.99,,,-99.99,,2013-03-30 21:13:00,
2013-03-30 17:22:00,57.0,28.0,30.04,WSW,241,3.0,-999.0,33,-99.99,,,-99.99,,2013-03-30 21:22:00,
2013-03-30 17:34:00,57.0,29.0,30.03,West,272,3.0,-999.0,34,-99.99,,,-99.99,,2013-03-30 21:34:00,
2013-03-30 17:43:00,57.0,29.0,30.03,West,272,3.0,-999.0,34,-99.99,,,-99.99,,2013-03-30 21:43:00,
2013-03-30 17:53:00,55.0,29.0,30.02,SW,225,2.0,-999.0,36,-99.99,,,-99.99,,2013-03-30 21:53:00,
2013-03-30 18:03:00,56.0,29.0,30.02,WSW,241,2.0,-999.0,35,-99.99,,,-99.99,,2013-03-30 22:03:00,
2013-03-30 18:13:00,56.0,29.0,30.02,WSW,241,2.0,-999.0,35,-99.99,,,-99.99,,2013-03-30 22:13:00,
2013-03-30 18:23:00,56.0,28.0,30.01,SW,230,3.0,-999.0,34,-99.99,,,-99.99,,2013-03-30 22:23:00,
2013-03-30 18:33:00,56.0,29.0,30.01,SW,236,3.0,-999.0,36,-99.99,,,-99.99,,2013-03-30 22:33:00,
2013-03-30 18:43:00,56.0,29.0,30.01,SW,236,3.0,-999.0,36,-99.99,,,-99.99,,2013-03-30 22:43:00,
2013-03-30 18:53:00,56.0,29.0,30.00,SSE,151,2.0,-999.0,35,-99.99,,,-99.99,,2013-03-30 22:53:00,
2013-03-30 19:03:00,56.0,29.0,30.00,SSE,151,2.0,-999.0,35,-99.99,,,-99.99,,2013-03-30 23:03:00,
2013-03-30 19:12:00,56.0,29.0,30.00,SSE,151,2.0,-999.0,35,-99.99,,,-99.99,,2013-03-30 23:12:00,
2013-03-30 19:22:00,54.0,28.0,29.99,SSE,163,2.0,-999.0,37,-99.99,,,-99.99,,2013-03-30 23:22:00,
2013-03-30 19:33:00,54.0,30.0,29.99,SSE,168,2.0,-999.0,39,-99.99,,,-99.99,,2013-03-30 23:33:00,
2013-03-30 19:42:00,54.0,30.0,29.99,SSE,168,2.0,-999.0,39,-99.99,,,-99.99,,2013-03-30 23:42:00,
2013-03-30 19:52:00,54.0,30.0,29.99,South,186,1.0,-999.0,40,-99.99,,,-99.99,,2013-03-30 23:52:00,
2013-03-30 20:03:00,53.0,30.0,29.98,SSE,167,1.0,-999.0,41,-99.99,,,-99.99,,2013-03-31 00:03:00,
2013-03-30 20:12:00,53.0,30.0,29.98,SSE,167,1.0,-999.0,41,-99.99,,,-99.99,,2013-03-31 00:12:00,
2013-03-30 20:22:00,51.0,31.0,29.98,SW,232,1.0,-999.0,47,-99.99,,,-99.99,,2013-03-31 00:22:00,
2013-03-30 20:32:00,50.0,33.0,29.98,SW,232,0.0,-999.0,51,-99.99,,,-99.99,,2013-03-31 00:32:00,
2013-03-30 20:42:00,50.0,33.0,29.98,SW,232,0.0,-999.0,51,-99.99,,,-99.99,,2013-03-31 00:42:00,
2013-03-30 20:52:00,48.0,33.0,29.97,SW,232,0.0,-999.0,55,-99.99,,,-99.99,,2013-03-31 00:52:00,
2013-03-30 21:02:00,47.0,33.0,29.97,SW,232,0.0,-999.0,57,-99.99,,,-99.99,,2013-03-31 01:02:00,
2013-03-30 21:12:00,47.0,33.0,29.97,SW,232,0.0,-999.0,57,-99.99,,,-99.99,,2013-03-31 01:12:00,
2013-03-30 21:22:00,46.0,34.0,29.97,SW,232,0.0,-999.0,62,-99.99,,,-99.99,,2013-03-31 01:22:00,
2013-03-30 21:32:00,46.0,36.0,29.97,SW,232,0.0,-999.0,67,-99.99,,,-99.99,,2013-03-31 01:32:00,
2013-03-30 21:42:00,46.0,36.0,29.97,SW,232,0.0,-999.0,67,-99.99,,,-99.99,,2013-03-31 01:42:00,
2013-03-30 21:52:00,45.0,35.0,29.97,SW,232,0.0,-999.0,68,-99.99,,,-99.99,,2013-03-31 01:52:00,
2013-03-30 22:02:00,45.0,35.0,29.97,SW,232,0.0,-999.0,67,-99.99,,,-99.99,,2013-03-31 02:02:00,
2013-03-30 22:13:00,45.0,35.0,29.97,SW,232,0.0,-999.0,67,-99.99,,,-99.99,,2013-03-31 02:13:00,
2013-03-30 22:22:00,45.0,34.0,29.96,SW,232,0.0,-999.0,64,-99.99,,,-99.99,,2013-03-31 02:22:00,
2013-03-30 22:32:00,45.0,34.0,29.96,SW,232,0.0,-999.0,64,-99.99,,,-99.99,,2013-03-31 02:32:00,
2013-03-30 22:43:00,45.0,34.0,29.96,SW,232,0.0,-999.0,64,-99.99,,,-99.99,,2013-03-31 02:43:00,
2013-03-30 22:52:00,46.0,34.0,29.96,SW,229,0.0,-999.0,63,-99.99,,,-99.99,,2013-03-31 02:52:00,
2013-03-30 23:02:00,47.0,35.0,29.95,SW,229,0.0,-999.0,62,-99.99,,,-99.99,,2013-03-31 03:02:00,
2013-03-30 23:13:00,47.0,35.0,29.95,SW,229,0.0,-999.0,62,-99.99,,,-99.99,,2013-03-31 03:13:00,
2013-03-30 23:22:00,47.0,34.0,29.95,SW,224,0.0,-999.0,61,-99.99,,,-99.99,,2013-03-31 03:22:00,
2013-03-30 23:33:00,47.0,35.0,29.94,SSW,197,0.0,-999.0,62,-99.99,,,-99.99,,2013-03-31 03:33:00,
2013-03-30 23:43:00,47.0,35.0,29.94,SSW,197,0.0,-999.0,62,-99.99,,,-99.99,,2013-03-31 03:43:00,
2013-03-30 23:54:00,48.0,36.0,29.93,South,173,1.0,-999.0,62,-99.99,,,-99.99,,2013-03-31 03:54:00,